Wind_Speed
22 23 24 24 23 22 22 25 29 31 30 28 25 26 29 28 26 24 22 24 25 27 31 31 32 32 31 32 28 29 27 25
23 24 24 25 23 22 21 24 28 32 33 35 39 35 30 29 26 24 24 24 24 27 28 32 32 34 33 32 30 33 30 27
26 25 25 25 24 23 21 23 27 32 38 41 31 26 25 20 20 20 23 26 29 29 29 32 32 35 34 34 35 40 34 29
28 26 25 22 25 23 22 23 26 33 40 33 23 22 25 27 26 23 21 22 28 31 32 33 32 32 44 41 39 43 40 36
24 20 21 23 26 22 22 23 25 35 33 29 29 25 27 24 19 19 22 23 26 30 30 33 33 35 41 39 42 43 40 39
15 18 19 21 23 21 20 22 25 31 29 28 30 25 18 15 17 18 20 18 22 25 30 34 33 44 48 46 45 44 45 41
7 8 9 14 13 16 19 21 25 28 31 30 27 26 21 19 18 17 19 20 22 25 27 30 33 36 48 47 46 49 46 42
1 1 1 5 11 14 16 20 24 29 33 30 26 23 22 19 17 17 18 20 25 29 31 31 34 31 43 54 47 51 50 46
6 5 3 2 7 10 14 17 24 32 30 29 24 22 19 17 18 15 18 19 23 29 30 29 33 34 33 44 51 49 53 49
8 7 6 2 3 8 12 17 23 28 31 26 22 20 18 15 15 14 15 20 21 21 24 28 29 32 35 46 53 49 54 53
7 7 7 5 2 6 10 17 20 23 23 25 19 19 18 15 15 16 17 17 18 17 17 19 23 31 40 46 49 50 49 53
7 8 7 4 3 3 7 13 20 20 22 23 19 17 15 15 14 16 15 14 13 12 12 14 17 25 39 44 46 49 55 54
11 10 9 6 4 2 2 9 16 18 23 20 18 15 14 14 15 13 14 12 8 7 8 11 15 18 26 35 40 45 49 48
12 12 15 13 7 3 2 6 12 16 18 17 17 15 14 14 14 15 13 13 10 8 7 11 15 19 20 25 33 37 39 45
11 11 12 14 17 10 2 6 11 12 13 15 14 17 16 17 12 13 13 13 12 8 8 12 16 23 22 23 21 20 24 30
10 12 12 12 15 18 13 4 5 11 11 12 14 14 14 13 12 13 13 13 13 11 11 13 20 27 31 30 29 30 34 36
10 10 11 11 13 16 15 17 15 5 12 13 12 15 16 16 16 14 13 13 14 14 14 15 20 30 31 33 29 30 33 34
9 9 9 10 10 10 12 16 17 16 6 14 13 15 19 18 15 16 16 15 15 15 15 17 18 21 22 30 32 31 30 29
10 9 9 10 9 8 8 8 13 17 18 7 8 14 17 16 19 17 18 17 17 19 18 17 17 19 19 19 20 24 33 33
Wind_Direction
224 229 230 231 232 232 232 224 216 215 210 207 207 213 223 227 233 240 238 229 229 223 219 222 219 217 214 209 216 200 187 182
240 239 236 233 232 233 231 216 214 209 206 205 211 211 219 226 234 237 235 228 227 223 222 219 220 217 219 213 208 196 193 187
244 243 239 235 230 231 224 213 210 210 210 213 210 204 219 220 224 235 239 226 223 226 223 225 223 209 219 219 203 192 192 192
246 243 239 225 229 225 220 213 208 211 216 209 202 201 211 215 224 228 233 232 223 226 223 223 227 230 217 219 204 202 196 197
246 245 240 235 231 228 222 212 206 215 219 202 202 204 209 218 226 227 227 226 229 225 226 224 227 230 221 225 207 204 200 196
236 236 241 239 230 215 219 210 202 215 206 200 201 202 204 207 204 212 227 231 228 228 229 227 225 232 220 221 212 206 201 195
225 235 248 231 201 199 214 206 203 210 195 196 199 202 201 200 200 209 220 225 225 229 227 228 228 225 218 223 225 213 206 196
209 313 280 199 205 207 217 203 203 203 193 195 199 203 204 202 201 208 214 218 229 227 232 232 241 227 229 216 223 215 210 199
80 64 61 145 201 219 219 204 207 202 190 197 199 202 204 205 208 210 222 226 241 242 242 241 240 237 240 227 221 219 215 199
69 61 51 43 226 225 230 204 215 208 205 196 197 200 204 208 209 213 222 230 237 245 245 243 242 244 237 231 220 220 217 203
73 54 39 23 352 250 226 209 210 215 196 203 198 202 207 211 199 216 221 231 241 240 246 245 243 235 230 223 221 211 212 202
76 55 42 42 23 259 233 216 210 210 190 201 196 199 203 207 202 222 234 230 237 244 255 242 226 224 217 216 215 200 196 205
78 59 47 25 56 40 263 213 206 210 198 194 191 197 200 202 204 216 225 232 220 239 243 224 220 216 218 216 211 205 202 207
85 67 52 48 34 4 184 213 209 206 199 202 201 201 199 204 210 211 225 219 217 229 231 217 209 203 198 204 207 207 205 197
84 70 58 47 56 36 18 211 206 215 213 210 205 205 208 195 204 217 218 214 214 207 208 211 200 195 195 185 174 182 199 205
82 72 64 53 56 56 36 4 223 205 194 219 213 211 203 192 201 215 210 212 212 198 195 205 204 198 199 193 193 196 202 208
85 70 59 44 38 51 45 32 16 262 206 202 224 222 213 203 205 209 210 208 206 207 200 200 206 211 206 205 203 208 212 217
77 60 45 38 25 14 30 39 22 5 258 212 212 217 223 206 205 212 207 213 204 206 207 209 208 210 215 223 224 221 225 227
65 55 46 33 28 19 4 17 25 10 358 280 224 196 206 216 220 210 217 216 214 212 210 214 216 217 213 213 217 228 231 236
Height
1417 1421 1423 1425 1429 1432 1435 1435 1437 1441 1443 1447 1449 1451 1453 1456 1459 1460 1464 1468 1472 1475 1479 1483 1487 1491 1495 1500 1506 1512 1517 1521
1412 1415 1417 1419 1422 1425 1427 1428 1430 1433 1436 1438 1438 1442 1446 1451 1454 1456 1458 1462 1466 1471 1474 1478 1483 1486 1490 1495 1501 1508 1514 1519
1406 1408 1411 1413 1416 1418 1420 1421 1424 1427 1428 1430 1434 1441 1443 1448 1450 1451 1453 1456 1461 1465 1469 1473 1478 1480 1486 1490 1496 1503 1510 1515
1398 1400 1403 1406 1410 1412 1414 1415 1418 1420 1421 1428 1435 1439 1438 1441 1443 1447 1448 1450 1454 1460 1465 1469 1474 1478 1477 1484 1491 1496 1503 1510
1391 1393 1398 1400 1404 1407 1409 1410 1413 1413 1416 1423 1429 1431 1430 1435 1439 1441 1444 1446 1449 1454 1458 1463 1467 1471 1473 1479 1484 1491 1499 1504
1389 1391 1392 1394 1397 1400 1404 1406 1409 1408 1412 1419 1424 1428 1429 1432 1436 1439 1440 1441 1444 1448 1453 1456 1459 1462 1466 1472 1478 1485 1493 1498
1387 1388 1390 1390 1390 1395 1398 1402 1405 1406 1410 1416 1419 1423 1426 1428 1430 1434 1437 1438 1441 1443 1446 1450 1454 1459 1461 1463 1471 1479 1486 1492
1385 1387 1387 1387 1390 1393 1393 1396 1401 1402 1406 1412 1415 1420 1423 1424 1426 1429 1432 1434 1436 1439 1442 1444 1447 1450 1455 1457 1463 1470 1479 1485
1385 1387 1388 1388 1390 1391 1390 1393 1396 1398 1403 1408 1412 1415 1418 1420 1421 1425 1427 1429 1431 1433 1436 1438 1441 1443 1447 1451 1455 1462 1471 1478
1385 1388 1388 1388 1389 1389 1389 1392 1393 1396 1400 1405 1408 1411 1413 1415 1417 1420 1423 1423 1425 1427 1430 1431 1433 1435 1438 1443 1446 1456 1463 1470
1387 1388 1388 1388 1387 1386 1387 1389 1391 1394 1398 1402 1405 1407 1410 1411 1413 1415 1417 1418 1421 1423 1424 1424 1425 1427 1431 1435 1443 1449 1455 1463
1388 1388 1387 1386 1387 1386 1385 1387 1390 1392 1396 1399 1402 1405 1407 1408 1410 1411 1413 1415 1416 1419 1419 1419 1421 1424 1428 1432 1438 1444 1448 1459
1389 1389 1388 1387 1387 1386 1386 1386 1389 1392 1394 1396 1400 1401 1403 1405 1407 1408 1410 1412 1413 1415 1416 1417 1419 1422 1426 1431 1436 1442 1447 1455
1389 1391 1390 1388 1387 1387 1386 1387 1389 1392 1392 1394 1396 1399 1400 1403 1404 1405 1407 1409 1410 1412 1413 1416 1418 1421 1426 1430 1435 1440 1446 1452
1391 1393 1393 1392 1390 1389 1387 1387 1388 1390 1391 1392 1394 1396 1397 1400 1401 1404 1405 1407 1409 1411 1412 1415 1417 1421 1426 1431 1437 1442 1448 1455
1394 1395 1395 1394 1391 1389 1389 1388 1389 1388 1388 1391 1393 1395 1397 1399 1399 1403 1404 1405 1408 1410 1411 1414 1418 1421 1425 1430 1435 1441 1446 1452
1396 1397 1397 1396 1393 1391 1390 1389 1387 1386 1387 1389 1394 1394 1396 1396 1399 1402 1403 1405 1407 1408 1410 1413 1416 1420 1424 1429 1433 1439 1444 1448
1398 1399 1399 1398 1396 1393 1391 1388 1388 1387 1385 1388 1388 1392 1394 1394 1398 1400 1402 1404 1406 1407 1409 1411 1415 1418 1423 1427 1431 1435 1440 1444
1400 1400 1400 1399 1398 1396 1392 1389 1387 1387 1387 1386 1386 1387 1388 1390 1395 1398 1400 1403 1404 1407 1408 1410 1413 1416 1420 1424 1428 1431 1435 1438